Regional Weather Roundup
Issued by NWS Columbia, SC

Home | Current Version | Previous Version | Text Only | Print | Product List | Glossary On
Versions: 1 2 3 4 5 6 7 8 9 10 11 12 13 14 15 16 17 18 19 20 21 22 23 24 25 26 27 28 29 30 31 32 33 34 35 36 37 38 39 40 41 42 43 44 45 46 47 48 49 50
000
ASUS42 KCAE 220810
RWRCAE
REGIONAL WEATHER ROUNDUP
NATIONAL WEATHER SERVICE COLUMBIA SC
400 AM EDT WED OCT 22 2014

NOTE: "FAIR" INDICATES FEW OR NO CLOUDS BELOW 12,000 FEET WITH NO
SIGNIFICANT WEATHER AND/OR OBSTRUCTIONS TO VISIBILITY.

NOT ALL STATIONS ARE QUALITY CONTROLLED BY THE NATIONAL
WEATHER SERVICE. USE DATA WITH CAUTION...ESPECIALLY
DEWPOINT OBSERVATIONS.

SCZ001>056-GAZ040-063>065-077-220900-
...UPSTATE SOUTH CAROLINA...

CITY           SKY/WX    TMP DP  RH WIND       PRES   REMARKS
ANDERSON       CLEAR     49  41  74 CALM      30.00S
LIBERTY        FAIR      39  39 100 MISG      29.99S
SPARTANBURG    FAIR      46  37  71 CALM      30.00R
CLEMSON        CLEAR     51  41  68 CALM      30.01S
GREENVILLE     CLEAR     51  35  54 NW5       30.00S
GREENWOOD      CLEAR     45  41  86 CALM      30.01R
GREER          CLEAR     48  37  65 NE3       29.98S
ROCK HILL      CLEAR     50  38  63 N12       29.98F
LAURENS        FAIR      45  37  76 CALM      30.01R


...CENTRAL SOUTH CAROLINA...

CITY           SKY/WX    TMP DP  RH WIND       PRES   REMARKS
COLUMBIA APT   CLEAR     55  41  59 N3        29.98R
COLUMBIA OWENS CLEAR     51  44  77 CALM      29.99S
DARLINGTON     CLEAR     50  39  66 N5        29.97S
FLORENCE       PTCLDY    56  39  53 N13       29.95S
MCENTIRE ANGB  CLEAR     51  42  69 N6        29.98S
ORANGEBURG     CLEAR     51  46  83 NE5       29.97S
SUMTER SHAW    CLEAR     52  41  66 N7        29.96R
NEWBERRY       FAIR      45  45 100 N3        30.02S
AIKEN          FAIR      52  45  76 N8        30.01S
BARNWELL       FAIR      52  45  76 NW3       29.98S
MANNING        FAIR      54  37  54 N5        29.95S
CAMDEN         FAIR      50  39  66 CALM      29.98F
LANCASTER      FAIR      48  41  76 CALM      29.98S
WINNSBORO      FAIR      46  41  81 NW3       29.98S


...EASTERN AND COASTAL SOUTH CAROLINA...

CITY           SKY/WX    TMP DP  RH WIND       PRES   REMARKS
MYRTLE BEACH   CLOUDY    59  43  55 N14G20    29.91S
N MYRTLE BCH   MOCLDY    57  44  62 N7        29.90S
CONWAY         FAIR      54  45  71 N3        29.93R
MARION         PTSUNNY   55  39  54 NW7       29.94S
HARTSVILLE     FAIR      50  28  43 CALM      29.97S
FLORENCE       PTCLDY    56  39  53 N13       29.95S
DARLINGTON     CLEAR     50  39  66 N5        29.97S
CHARLESTON APT CLEAR     60  44  55 N10       29.93S
MOUNT PLEASANT FAIR      57  48  72 N6        29.93S
WALTERBORO     SUNNY     54  52  94 N3        29.96S
BEAUFORT       CLEAR     57  50  77 N5        29.95S


...EASTERN GEORGIA...

CITY           SKY/WX    TMP DP  RH WIND       PRES   REMARKS
AUGUSTA BUSH F CLEAR     44  42  93 CALM      29.98S
AUGUSTA DANIEL CLEAR     55  45  68 N6        29.99S
THOMSON        CLEAR     47  47 100 CALM      30.04S
WASHINGTON     FAIR      50  50 100 CALM      30.00S
CLAXTON        FAIR      52  52 100 CALM      29.97S
SYLVANIA       SUNNY     55  53  91 CALM      29.98R
STATESBORO     CLEAR     51  51 100 CALM      29.97S
SAVANNAH       CLEAR     58  50  75 N6        29.95F


...SOUTHERN NORTH CAROLINA...

CITY           SKY/WX    TMP DP  RH WIND       PRES   REMARKS
CHARLOTTE      CLEAR     49  36  61 N13       29.98F
MONROE         CLEAR     52  37  56 N8        29.97S
WADESBORO      SUNNY     48  38  70 CALM      29.96F
ROCKINGHAM     SUNNY     50  39  64 N3        29.95S
RUTHERFORDTON  CLEAR     46  35  64 CALM      30.02S
ASHEVILLE      CLEAR     45  35  68 N10       30.04S

$$



USA.gov is the U.S. government's official web portal to all federal, state and local government web resources and services.